Regional Weather Roundup
Issued by NWS

Home | Current Version | Previous Version | Graphics & Text | Print | Product List | Glossary On
Versions: 1 2 3 4 5 6 7 8 9 10 11 12 13 14 15 16 17 18 19 20 21 22 23 24 25 26 27 28 29 30 31 32 33 34 35 36 37 38 39 40 41 42 43 44 45 46 47 48 49 50
220
ASUS43 KDMX 191401
RWRIA

WEATHER ROUNDUP FOR IOWA
NATIONAL WEATHER SERVICE DES MOINES IA
900 AM CDT SAT AUG 19 2017

NOTE: "FAIR" INDICATES FEW OR NO CLOUDS BELOW 12,000 FEET WITH NO
SIGNIFICANT WEATHER AND/OR OBSTRUCTIONS TO VISIBILITY.

* - THESE STATIONS ARE NOT NWS STATIONS...THUS NOT UNDER NWS
QUALITY CONTROL.  THEY ALSO DO NOT REPORT WEATHER SUCH
AS PRECIPITATION OR FOG.

IAZ001>003-012>014-020>022-031>034-043>046-191500-
   NORTHWEST IOWA

CITY           SKY/WX    TMP DP  RH WIND       PRES   REMARKS
CARROLL *      PTSUNNY   63  63 100 N8        29.99R
CHEROKEE *     FOG       59  59 100 CALM      29.99S VSB 1/4
DENISON *      SUNNY     64  63  94 N5        29.99S
LE MARS *      FOG       59  59 100 CALM      29.99R VSB<1/4
ORANGE CITY *  FOG       61  61 100 CALM      29.99S VSB 1/4
SHELDON *      FOG       57  57 100 CALM      29.98S VSB<1/4
SIOUX CITY     SUNNY     64  62  93 CALM      29.98S
SPENCER        CLOUDY    60  60 100 W3        30.00R FOG
STORM LAKE *   FOG       59  59 100 N3        30.00R VSB<1/4
$$

IAZ055>058-069>071-079>083-090>094-191500-
   SOUTHWEST IOWA

CITY           SKY/WX    TMP DP  RH WIND       PRES   REMARKS
ATLANTIC *     SUNNY     64  63  94 N6        29.97F
AUDUBON *      SUNNY     64  61  88 NW6       29.99R
CLARINDA *     SUNNY     66  66 100 CALM      30.00R
COUNCIL BLFS * SUNNY     64  64 100 CALM      29.98F
CRESTON *      SUNNY     66  64  94 NW6       29.99R
HARLAN  *      SUNNY     64  63  94 NW5       30.01F
LAMONI         SUNNY     70  66  87 NW5       29.96S
RED OAK *      SUNNY     66  63  88 CALM      29.98F
SHENANDOAH *   SUNNY     66  64  94 CALM      29.99S
$$

IAZ047>049-059>061-072>074-084-191500-
   CENTRAL IOWA

CITY           SKY/WX    TMP DP  RH WIND       PRES   REMARKS
AMES           CLOUDY    66  64  93 CALM      29.98R
ANKENY *       CLOUDY    66  63  88 NE5       29.97S
BOONE *        CLOUDY    66  63  88 E5        29.97R
CHARITON *     SUNNY     70  66  88 S6        29.95S
DES MOINES     CLOUDY    68  65  90 S6        29.95R
GRINNELL*      PTSUNNY   67  62  83 SE5       29.98S
KNOXVILLE *    SUNNY     68  64  88 S7        29.95R
MARSHALLTOWN   CLOUDY    65  63  93 SE3       29.97R
NEWTON *       CLOUDY    66  63  88 E5        29.97R
PELLA *        SUNNY     70  62  75 SE7       29.96S
PERRY *        CLOUDY    65  64  98 CALM      29.97S FOG
$$

IAZ004>006-015-016-023>025-035-036-191500-
   NORTH CENTRAL IOWA

CITY           SKY/WX    TMP DP  RH WIND       PRES   REMARKS
ALGONA *       SUNNY     64  63  94 NE5       29.99S
CLARION *      MOSUNNY   66  64  94 CALM      29.99R
ESTHERVILLE    SUNNY     63  61  93 CALM      29.98R
FORT DODGE *   MOSUNNY   64  61  88 CALM      29.99S
MASON CITY     SUNNY     64  61  90 SE5       30.00R
FOREST CITY *    N/A     64  63  94 CALM      29.99S
WEBSTER CITY * CLOUDY    64  63  94 MISG      29.97R
IOWA FALLS *   CLOUDY    65  62  90 E3        29.99S
$$

IAZ007>011-017>019-026>030-037>042-050>054-066-191500-
   NORTHEAST IOWA

CITY           SKY/WX    TMP DP  RH WIND       PRES   REMARKS
CEDAR RAPIDS   SUNNY     66  63  90 SE6       29.97S
CHARLES CITY * MOSUNNY   64  64 100 CALM      30.00R
CLINTON *      SUNNY     67  63  87 CALM      29.98S
DECORAH *      SUNNY     61  59  94 W5        29.99R
DUBUQUE        SUNNY     68  62  81 NE6       29.99R
MONTICELLO *   SUNNY     66  63  88 CALM      29.97S
OELWEIN *      MOSUNNY   66  63  88 CALM      30.00R
WATERLOO       MOSUNNY   67  60  78 CALM      29.97R
$$

IAZ064-065-067-068-078-191500-
   EAST CENTRAL IOWA

CITY           SKY/WX    TMP DP  RH WIND       PRES   REMARKS
DAVENPORT      SUNNY     69  62  78 VRB5      29.99R
IOWA CITY      MOSUNNY   70  61  73 SE5       29.98S
MUSCATINE *    SUNNY     70  61  73 E6        29.97R
QUAD CITIES    SUNNY     70  62  76 E7        29.96S
$$

IAZ062-063-075>077-085>089-095>099-191500-
   SOUTHEAST IOWA

CITY           SKY/WX    TMP DP  RH WIND       PRES   REMARKS
BURLINGTON     SUNNY     70  63  78 SE6       29.96R
FAIRFIELD *    SUNNY     72  61  68 SE8       29.95S
FORT MADISON * SUNNY     70  64  83 E5        29.97S
KEOKUK *       SUNNY     72  64  78 E7        29.95R
OSKALOOSA *      N/A     70  62  78 SE7       29.96S
OTTUMWA        SUNNY     71  62  73 SE9       29.95S
WASHINGTON *   CLOUDY    68  63  83 E5        29.98R
$$

ABBREVIATIONS USED IN REMARKS
   TC - TEMPERATURES IN CELSIUS
  WCI - WIND CHILL INDEX
   HX - HEAT INDEX
  VSB - VISIBILITY
$$





USA.gov is the U.S. government's official web portal to all federal, state and local government web resources and services.